Jaffrey, NH

2:55 PM EST on February 08, 2016 (GMT -0500)
Jaffrey Airport-Silver Ranch

Weather History for KAFN - March, 2014

Change the Weather History Date:

Thursday, March 27, 2014

  Actual Average Record
Temperature  
Mean Temperature 26 °F -  
Max Temperature 37 °F 43 °F 72 °F (1998)
Min Temperature 14 °F 25 °F 12 °F (2001)
Degree Days  
Heating Degree Days 40    
Moisture  
Dew Point 1 °F    
Average Humidity 35    
Maximum Humidity 48    
Minimum Humidity 22    
Precipitation  
Precipitation 0.00 in - - ()
Sea Level Pressure  
Sea Level Pressure 30.25 in    
Wind  
Wind Speed 10 mph (WSW)    
Max Wind Speed 16 mph    
Max Gust Speed 31 mph    
Visibility 10 miles    
Events      
Averages and records for this station are not official NWS values.
T = Trace of Precipitation, MM = Missing Value Source: NWS Daily Summary

Daily Weather History Graph

Daily Weather History Graph

Search for Another Location

Airport or City:

Trip Planner

Search our weather history database for the weather conditions in past years. The results will help you decide how hot, cold, wet, or windy it might be!

Date:

Astronomy

Mar. 27, 2014 Rise Set
Actual Time 6:38 AM EDT 7:08 PM EDT
Civil Twilight 6:10 AM EDT 7:36 PM EDT
Nautical Twilight 5:37 AM EDT 8:10 PM EDT
Astronomical Twilight 5:02 AM EDT 8:44 PM EDT
Moon 4:33 AM EDT (3/27) 3:48 PM EDT (3/27)
Length of Visible Light 13h 26m
Length of Day
12h 29m
Waning Crescent, 13% of the Moon is Illuminated
Mar 27
Waning Crescent
Mar 30
New
Apr 7
First Quarter
Apr 15
Full
Apr 22
Last Quarter

Hourly Weather History & Observations

Time (EDT) Temp. Windchill Dew Point Humidity Pressure Visibility Wind Dir Wind Speed Gust Speed Precip Events Conditions
12:52 AM 16.0 °F 0.6 °F -5.1 °F 39% 30.09 in 10.0 mi NW 16.1 mph 27.6 mph N/A   Clear
1:52 AM 16.0 °F 1.7 °F -5.1 °F 39% 30.11 in 10.0 mi WNW 13.8 mph 29.9 mph N/A   Clear
2:52 AM 16.0 °F 4.4 °F -5.1 °F 39% 30.13 in 10.0 mi NW 9.2 mph 19.6 mph N/A   Clear
3:52 AM 16.0 °F 3.6 °F -5.1 °F 39% 30.16 in 10.0 mi NW 10.4 mph 31.1 mph N/A   Clear
4:52 AM 15.1 °F 5.2 °F -4.0 °F 43% 30.21 in 10.0 mi Variable 6.9 mph - N/A   Clear
5:52 AM 15.1 °F 2.5 °F -4.0 °F 43% 30.26 in 10.0 mi West 10.4 mph - N/A   Clear
6:52 AM 14.0 °F 2.0 °F -5.1 °F 43% 30.28 in 10.0 mi West 9.2 mph 18.4 mph N/A   Clear
7:52 AM 16.0 °F 8.8 °F -4.0 °F 41% 30.30 in 10.0 mi West 4.6 mph - N/A   Clear
8:52 AM 18.0 °F 12.7 °F -4.0 °F 38% 30.32 in 10.0 mi Variable 3.5 mph - N/A   Clear
9:52 AM 19.9 °F 10.1 °F -2.9 °F 37% 30.34 in 10.0 mi WNW 8.1 mph - N/A   Clear
10:52 AM 23.0 °F 12.4 °F -2.9 °F 32% 30.34 in 10.0 mi West 10.4 mph - N/A   Clear
11:52 AM 26.1 °F 16.2 °F -2.9 °F 28% 30.32 in 10.0 mi West 10.4 mph - N/A   Clear
12:52 PM 28.9 °F 22.8 °F -2.0 °F 26% 30.29 in 10.0 mi Variable 5.8 mph - N/A   Clear
1:52 PM 33.1 °F 24.4 °F -0.9 °F 23% 30.28 in 10.0 mi West 11.5 mph - N/A   Clear
2:52 PM 34.0 °F 28.0 °F 1.0 °F 25% 30.27 in 10.0 mi Variable 6.9 mph - N/A   Clear
3:52 PM 36.0 °F 29.6 °F -0.0 °F 22% 30.25 in 10.0 mi West 8.1 mph - N/A   Clear
4:52 PM 37.0 °F 30.4 °F 1.0 °F 22% 30.25 in 10.0 mi WSW 9.2 mph 17.3 mph N/A   Clear
5:52 PM 37.0 °F 29.8 °F 5.0 °F 26% 30.26 in 10.0 mi SSW 10.4 mph - N/A   Clear
6:52 PM 36.0 °F 32.1 °F 8.1 °F 31% 30.26 in 10.0 mi SSW 4.6 mph - N/A   Mostly Cloudy
7:52 PM 30.0 °F 26.5 °F 12.0 °F 47% 30.25 in 10.0 mi South 3.5 mph - N/A   Clear
8:52 PM 32.0 °F 25.6 °F 14.0 °F 48% 30.26 in 10.0 mi South 6.9 mph - N/A   Overcast
9:52 PM 34.0 °F 28.0 °F 10.9 °F 38% 30.24 in 10.0 mi SSW 6.9 mph - N/A   Overcast
10:52 PM 34.0 °F 28.0 °F 9.0 °F 35% 30.25 in 10.0 mi SW 6.9 mph - N/A   Overcast
11:52 PM 33.1 °F 26.9 °F 10.9 °F 40% 30.22 in 10.0 mi SSW 6.9 mph - N/A   Overcast